Regional Weather Roundup
Issued by NWS Jackson, KY

Home | Current Version | Previous Version | Graphics & Text | Print | Product List | Glossary Off
Versions: 1 2 3 4 5 6 7 8 9 10 11 12 13 14 15 16 17 18 19 20 21 22 23 24 25 26 27 28 29 30 31 32 33 34 35 36 37 38 39 40 41 42 43 44 45 46 47 48 49 50

000
ASUS43 KJKL 171210
RWRJKL

EAST KENTUCKY HOURLY WEATHER ROUNDUP
NATIONAL WEATHER SERVICE JACKSON KY
800 AM EDT TUE OCT 17 2017

NOTE: "FAIR" INDICATES FEW OR NO CLOUDS BELOW 12,000 FEET WITH
NO SIGNIFICANT WEATHER AND/OR OBSTRUCTIONS TO VISIBILITY.

* THESE REPORTS ARE NOT UNDER NWS QUALITY CONTROL AND MAY NOT
  REPORT WEATHER SUCH AS PRECIPITATION AND FOG.

KYZ079-080-083-085-087-088-110-112-115-119-120-171300
...EASTERN KENTUCKY...

CITY           SKY/WX    TMP DP  RH WIND       PRES   REMARKS
JACKSON        CLEAR     40  38  93 CALM      30.36R
6HR MIN TEMP:  39; 6HR MAX TEMP:  47;

LONDON         CLEAR     38  35  89 CALM      30.36R
6HR MIN TEMP:  37; 6HR MAX TEMP:  42;

SOMERSET*      CLEAR     36  36 100 CALM      30.39R
MONTICELLO*    CLOUDY    36  35  96 W9        30.39R WCI  29
6HR MIN TEMP:  34; 6HR MAX TEMP:  39;

WILLIAMSBURG*  CLOUDY    37  37 100 CALM      30.37R VSB<1/4
MIDDLESBORO*   CLOUDY    40  40 100 CALM      30.39R FOG
6HR MIN TEMP:  39; 6HR MAX TEMP:  40;

HARLAN APT*    CLOUDY    37  37 100 CALM      30.38R VSB 1/4
PIKE CO APT*   FOG       37  37 100 CALM      30.37R VSB<1/4
BIG SANDY APT* FOG       37  37 100 CALM      30.38R VSB 1
6HR MIN TEMP:  37; 6HR MAX TEMP:  43;

MOREHEAD APT*  SUNNY     37  37 100 CALM      30.39S FOG
$$

KYZ035-036-041-042-044-050-067-078-099-171300
...CENTRAL KENTUCKY...

CITY           SKY/WX    TMP DP  RH WIND       PRES   REMARKS
MT STERLING*   CLEAR     36  34  93 CALM      30.39R
FLEMING/MASON* FOG       38  38 100 CALM      30.39S VSB 1
DANVILLE*      CLEAR     36  36 100 CALM      30.38S
LEXINGTON      CLEAR     39  34  82 CALM      30.37R
6HR MIN TEMP:  37; 6HR MAX TEMP:  44;

FRANKFORT      CLEAR     38  34  85 CALM      30.37R
6HR MIN TEMP:  37; 6HR MAX TEMP:  41;

LOUISVILLE     CLEAR     43  40  89 SE3       30.37S
6HR MIN TEMP:  43; 6HR MAX TEMP:  49;

LEBANON*         N/A     37  37 100 CALM      30.37S
GLASGOW*       CLEAR    N/A N/A N/A CALM      30.36S
BOWLING GREEN  CLEAR     40  39  97 CALM      30.37R
6HR MIN TEMP:  39; 6HR MAX TEMP:  45;

$$

KYZ091>093-OHZ055-061-077-WVZ005-015-034-035-042-171300
...SOUTHERN OHIO/WEST VIRGINIA...

CITY           SKY/WX    TMP DP  RH WIND       PRES   REMARKS
COVINGTON      CLEAR     37  37 100 CALM      30.35S
COLUMBUS       PTCLDY    42  39  89 SE3       30.35S
DAYTON         PTCLDY    42  39  89 SW7       30.35S
WILMINGTON     CLEAR     41  38  89 CALM      30.36R
HUNTINGTON     CLEAR     36  34  92 CALM      30.37S
CHARLESTON     FOG       40  39  97 SE3       30.38R VSB 1/4
PINEVILLE*     FOG       37  37  99 MISG      30.43R VSB 1/4
BECKLEY        CLEAR     35  33  92 CALM      30.36R
BLUEFIELD      CLEAR     39  32  76 NW5       30.35R
LOGAN CO APT*  FOG       37  37 100 CALM      30.37R VSB<1/4
$$

VAZ002-007-008-TNZ017-027-036-066-071-171300
...SOUTHWEST VIRGINIA/EAST TENNESSEE...

CITY           SKY/WX    TMP DP  RH WIND       PRES   REMARKS
WISE*          CLEAR     41  37  87 CALM      30.36R
JONESVILLE*      N/A     34  34 100 CALM      30.39R
ABINGDON*      CLEAR     37  37  97 E5        30.36R WCI  34
BRISTOL        FOG       36  36 100 CALM      30.36S VSB 1
MORRISTOWN*    SUNNY     41  39  93 SE3       30.34S
SEVIERVILLE*   SUNNY     39  37  93 CALM      30.35R
KNOXVILLE      CLEAR     43  42  97 NE3       30.34R
LAFOLLETTE*    CLOUDY    37  37 100 CALM      30.39S
CROSSVILLE     CLEAR     37  36  96 CALM      30.34R
NASHVILLE      CLEAR     42  39  89 CALM      30.35R
$$

...KEY TO REMARKS...
VSB - VISIBILITY IN MILES
WCI - WIND CHILL INDEX
HX  - HEAT INDEX

$$



USA.gov is the U.S. government's official web portal to all federal, state and local government web resources and services.